星链-36588(STARLINK-36588)

导读

STARLINK-36588是美国于2026年1月25日发射的星链卫星,星链是SpaceX打造的全球卫星互联网星座项目,这类卫星运行在近地轨道,旨在为全球范围提供低延迟、高速率的宽带互联网服务,为偏远地区网络覆盖、应急通信等场景提供支撑。

基本信息
目录编号:
67573
目录名称:
STARLINK-36588
国际标识:
2026-016N
轨道中心:
EARTH
卫星名称:
星链-36588
卫星全名:
星链-36588(STARLINK-36588)
卫星状态:
在轨 (已飞行222 天)
发射日期:
2026-01-25 UTC
国别 :
美国 (US)
星等 :
--
轨道信息
数据来源 国际轨道数据
星历时间: 2026-09-02T11:16:37+0800
1天前
查看轨道信息
半长轴: 6843.685km
偏心率: 0.0001481
轨道倾角: 97.285°
近地点辐角 96.918°
升交点赤经 304.021°
平近点角 263.223°
近地点: 464.534km
远地点: 466.562km
周期: 93.906分钟
每日圈数: 15.334436
详细信息
固有亮度:
5
最大亮度:
2.5
卫星平台:
Starlink V1.0
覆盖范围:
全球
运营商:
太空探索技术公司
运营商所在国:
美国
制造商(研发单位):
太空探索技术公司
制造商所在国:
美国
使用方式:
暂无
卫星简介
Starlink 计划是 SpaceX 推出的全球卫星互联网项目,通过发射低轨道卫星,为全球尤其是偏远地区提供高速、低延迟的互联网服务。自 2019 年起,Starlink 已部署数千颗卫星,旨在缩小全球数字鸿沟,推动互联网普及。该项目还为军事、航空等行业提供通信支持,带来广泛经济效益。
2D轨道图
3D轨道图
轨道高度分析图
轨道倾角分析图
轨道综合分析图
查看轨道综合分析图
交会数据列表
事件ID 空间交会对象 最接近时刻(TCA) 交会距离 交会风险概率(CRP) 交会风险指数(CRI) 操作
CDM_260903-032005-227306-757322
2026-09-03T
03:20:08+0000
1.648 km
极远距离
3.70068E-6 低风险 0.46
CDM_260903-045405-227306-757321
2026-09-03T
04:54:08+0000
1.655 km
极远距离
3.644552E-6 低风险 0.46
CDM_260903-005905-227306-757321
2026-09-03T
00:59:12+0000
1.875 km
极远距离
2.563765E-6 低风险 0.43
CDM_260905-060206-757306-769621
2026-09-05T
06:02:31+0000
1.841 km
极远距离
2.124792E-6 低风险 0.42
CDM_260903-023305-227306-757321
2026-09-03T
02:33:11+0000
2.318 km
极远距离
1.555609E-6 低风险 0.39
CDM_260905-100805-082306-757321
2026-09-05T
10:08:36+0000
2.706 km
极远距离
1.451869E-6 低风险 0.38
CDM_260901-204706-449006-757321
2026-09-01T
20:47:22+0000
2.510 km
极远距离
1.385581E-6 低风险 0.38
CDM_260905-061305-082306-757321
2026-09-05T
06:13:48+0000
2.860 km
极远距离
1.342901E-6 低风险 0.38